TimeEST,TemperatureF,Dew PointF,Humidity,Sea Level PressureIn,VisibilityMPH,Wind Direction,Wind SpeedMPH,Gust SpeedMPH,PrecipitationIn,Events,Conditions,WindDirDegrees,DateUTC
12:15 AM,30.2,30.2,100,30.14,10.0,Calm,Calm,-,N/A,,Unknown,0,2012-11-21 05:15:00
12:35 AM,30.2,30.2,100,30.14,10.0,Calm,Calm,-,N/A,,Unknown,0,2012-11-21 05:35:00
12:55 AM,28.4,28.4,100,30.14,10.0,Calm,Calm,-,N/A,,Unknown,0,2012-11-21 05:55:00
1:15 AM,28.4,28.4,100,30.14,10.0,Calm,Calm,-,N/A,,Unknown,0,2012-11-21 06:15:00
1:35 AM,28.4,28.4,100,30.13,10.0,Calm,Calm,-,N/A,,Unknown,0,2012-11-21 06:35:00
1:55 AM,28.4,28.4,100,30.14,10.0,Calm,Calm,-,N/A,,Unknown,0,2012-11-21 06:55:00
2:15 AM,28.4,28.4,100,30.14,10.0,Calm,Calm,-,N/A,,Unknown,0,2012-11-21 07:15:00
2:35 AM,28.4,28.4,100,30.14,10.0,Calm,Calm,-,N/A,,Unknown,0,2012-11-21 07:35:00
2:55 AM,26.6,26.6,100,30.14,10.0,Calm,Calm,-,N/A,,Unknown,0,2012-11-21 07:55:00
3:15 AM,28.4,28.4,100,30.15,10.0,Calm,Calm,-,N/A,,Unknown,0,2012-11-21 08:15:00
3:35 AM,26.6,26.6,100,30.14,10.0,Calm,Calm,-,N/A,,Unknown,0,2012-11-21 08:35:00
3:55 AM,26.6,26.6,100,30.14,10.0,Calm,Calm,-,N/A,,Unknown,0,2012-11-21 08:55:00
4:15 AM,26.6,26.6,100,30.15,10.0,Calm,Calm,-,N/A,,Unknown,0,2012-11-21 09:15:00
4:35 AM,26.6,26.6,100,30.15,10.0,Calm,Calm,-,N/A,,Unknown,0,2012-11-21 09:35:00
4:55 AM,24.8,24.8,100,30.15,10.0,Calm,Calm,-,N/A,,Unknown,0,2012-11-21 09:55:00
5:15 AM,26.6,26.6,100,30.16,10.0,Calm,Calm,-,N/A,,Unknown,0,2012-11-21 10:15:00
5:35 AM,26.6,26.6,100,30.16,10.0,Calm,Calm,-,N/A,,Unknown,0,2012-11-21 10:35:00
5:55 AM,26.6,26.6,100,30.17,10.0,Calm,Calm,-,N/A,,Unknown,0,2012-11-21 10:55:00
6:15 AM,24.8,24.8,100,30.17,10.0,Calm,Calm,-,N/A,,Unknown,0,2012-11-21 11:15:00
6:35 AM,26.6,26.6,100,30.17,10.0,Calm,Calm,-,N/A,,Unknown,0,2012-11-21 11:35:00
6:55 AM,26.6,26.6,100,30.18,10.0,Calm,Calm,-,N/A,,Unknown,0,2012-11-21 11:55:00
7:15 AM,24.8,24.8,100,30.19,10.0,Calm,Calm,-,N/A,,Unknown,0,2012-11-21 12:15:00
7:35 AM,24.8,24.8,100,30.20,10.0,Calm,Calm,-,N/A,,Unknown,0,2012-11-21 12:35:00
7:55 AM,26.6,26.6,100,30.20,7.0,Calm,Calm,-,N/A,,Unknown,0,2012-11-21 12:55:00
8:15 AM,28.4,28.4,100,30.21,7.0,Calm,Calm,-,N/A,,Unknown,0,2012-11-21 13:15:00
8:35 AM,30.2,30.2,100,30.22,7.0,Calm,Calm,-,N/A,,Unknown,0,2012-11-21 13:35:00
8:55 AM,32.0,32.0,100,30.22,10.0,Calm,Calm,-,N/A,,Unknown,0,2012-11-21 13:55:00
9:15 AM,35.6,33.8,93,30.22,10.0,Calm,Calm,-,N/A,,Unknown,0,2012-11-21 14:15:00
9:35 AM,37.4,35.6,93,30.22,10.0,Calm,Calm,-,N/A,,Unknown,0,2012-11-21 14:35:00
9:55 AM,41.0,37.4,87,30.22,10.0,Calm,Calm,-,N/A,,Unknown,0,2012-11-21 14:55:00
10:15 AM,42.8,37.4,81,30.22,10.0,Calm,Calm,-,N/A,,Unknown,0,2012-11-21 15:15:00
10:35 AM,46.4,37.4,71,30.22,10.0,Calm,Calm,-,N/A,,Unknown,0,2012-11-21 15:35:00
10:55 AM,48.2,37.4,66,30.22,10.0,Calm,Calm,-,N/A,,Unknown,0,2012-11-21 15:55:00
11:15 AM,48.2,33.8,58,30.21,10.0,Calm,Calm,-,N/A,,Unknown,0,2012-11-21 16:15:00
11:35 AM,48.2,35.6,62,30.21,10.0,Calm,Calm,-,N/A,,Unknown,0,2012-11-21 16:35:00
11:55 AM,51.8,35.6,54,30.21,10.0,Calm,Calm,-,N/A,,Unknown,0,2012-11-21 16:55:00
12:15 PM,51.8,33.8,50,30.20,10.0,Calm,Calm,-,N/A,,Unknown,0,2012-11-21 17:15:00
12:35 PM,53.6,32.0,44,30.20,10.0,NNW,4.6,-,N/A,,Unknown,340,2012-11-21 17:35:00
12:55 PM,53.6,32.0,44,30.19,10.0,Calm,Calm,-,N/A,,Unknown,0,2012-11-21 17:55:00
1:15 PM,53.6,30.2,41,30.19,10.0,Calm,Calm,-,N/A,,Unknown,0,2012-11-21 18:15:00
1:35 PM,55.4,28.4,36,30.18,10.0,Calm,Calm,-,N/A,,Unknown,0,2012-11-21 18:35:00
1:55 PM,55.4,28.4,36,30.18,10.0,Calm,Calm,-,N/A,,Unknown,0,2012-11-21 18:55:00
2:15 PM,55.4,28.4,36,30.17,10.0,Calm,Calm,-,N/A,,Unknown,0,2012-11-21 19:15:00
2:35 PM,55.4,28.4,36,30.17,10.0,Calm,Calm,-,N/A,,Unknown,0,2012-11-21 19:35:00
2:55 PM,55.4,28.4,36,30.18,10.0,Calm,Calm,-,N/A,,Unknown,0,2012-11-21 19:55:00
3:15 PM,55.4,26.6,33,30.18,10.0,Calm,Calm,-,N/A,,Unknown,0,2012-11-21 20:15:00
3:35 PM,55.4,26.6,33,30.19,10.0,NNW,4.6,-,N/A,,Unknown,330,2012-11-21 20:35:00
3:55 PM,55.4,26.6,33,30.19,10.0,Calm,Calm,-,N/A,,Unknown,0,2012-11-21 20:55:00
4:15 PM,55.4,28.4,36,30.20,10.0,Calm,Calm,-,N/A,,Unknown,0,2012-11-21 21:15:00
4:35 PM,53.6,28.4,38,30.20,10.0,Calm,Calm,-,N/A,,Unknown,0,2012-11-21 21:35:00
4:55 PM,51.8,28.4,41,30.20,10.0,Calm,Calm,-,N/A,,Unknown,0,2012-11-21 21:55:00
5:15 PM,48.2,30.2,50,30.20,10.0,Calm,Calm,-,N/A,,Unknown,0,2012-11-21 22:15:00
5:35 PM,44.6,30.2,57,30.20,10.0,Calm,Calm,-,N/A,,Unknown,0,2012-11-21 22:35:00
5:55 PM,42.8,30.2,61,30.21,10.0,Calm,Calm,-,N/A,,Unknown,0,2012-11-21 22:55:00
6:15 PM,41.0,30.2,65,30.21,10.0,Calm,Calm,-,N/A,,Unknown,0,2012-11-21 23:15:00
6:35 PM,37.4,30.2,75,30.21,10.0,Calm,Calm,-,N/A,,Unknown,0,2012-11-21 23:35:00
6:55 PM,39.2,30.2,70,30.21,10.0,Calm,Calm,-,N/A,,Unknown,0,2012-11-21 23:55:00
7:15 PM,37.4,30.2,75,30.21,10.0,Calm,Calm,-,N/A,,Unknown,0,2012-11-22 00:15:00
7:35 PM,37.4,30.2,75,30.22,10.0,Calm,Calm,-,N/A,,Unknown,0,2012-11-22 00:35:00
7:55 PM,33.8,30.2,87,30.22,10.0,Calm,Calm,-,N/A,,Unknown,0,2012-11-22 00:55:00
8:15 PM,33.8,30.2,87,30.22,10.0,Calm,Calm,-,N/A,,Unknown,0,2012-11-22 01:15:00
8:35 PM,33.8,30.2,87,30.22,10.0,Calm,Calm,-,N/A,,Unknown,0,2012-11-22 01:35:00
8:55 PM,32.0,30.2,93,30.22,10.0,Calm,Calm,-,N/A,,Unknown,0,2012-11-22 01:55:00
9:15 PM,32.0,30.2,93,30.22,10.0,Calm,Calm,-,N/A,,Unknown,0,2012-11-22 02:15:00
9:35 PM,32.0,30.2,93,30.22,10.0,Calm,Calm,-,N/A,,Unknown,0,2012-11-22 02:35:00
9:55 PM,32.0,28.4,87,30.22,10.0,Calm,Calm,-,N/A,,Unknown,0,2012-11-22 02:55:00
10:15 PM,30.2,28.4,93,30.22,10.0,Calm,Calm,-,N/A,,Unknown,0,2012-11-22 03:15:00
10:35 PM,30.2,28.4,93,30.22,10.0,Calm,Calm,-,N/A,,Unknown,0,2012-11-22 03:35:00
10:55 PM,30.2,28.4,93,30.22,10.0,Calm,Calm,-,N/A,,Unknown,0,2012-11-22 03:55:00
11:15 PM,30.2,28.4,93,30.22,10.0,Calm,Calm,-,N/A,,Unknown,0,2012-11-22 04:15:00
11:35 PM,30.2,28.4,93,30.23,10.0,Calm,Calm,-,N/A,,Unknown,0,2012-11-22 04:35:00
11:55 PM,30.2,28.4,93,30.23,10.0,Calm,Calm,-,N/A,,Unknown,0,2012-11-22 04:55:00